2017-02-26T11:32:55,8.88,33.63,27.75,16.38,14.94,8.13,,
2017-02-26T11:33:28,8.94,33.63,27.63,16.38,14.94,8.19,,
2017-02-26T11:34:02,8.94,33.63,27.63,16.38,15,8.13,,
2017-02-26T11:34:35,8.94,33.56,27.56,16.38,15,8.13,,
2017-02-26T11:35:09,9.06,33.56,27.44,16.38,15,8.19,,
2017-02-26T11:35:43,9.19,33.5,27.38,16.38,15,8.19,,
2017-02-26T11:36:16,9.25,33.5,27.31,16.38,15.06,8.19,,v
2017-02-26T11:36:50,9.25,33.44,27.31,16.38,15.06,8.19,,
2017-02-26T11:37:23,9.25,33.44,27.31,16.38,15.06,8.19,,
2017-02-26T11:37:57,9.25,33.5,27.25,16.44,15.06,8.19,,
2017-02-26T11:38:31,9.25,33.5,27.25,16.38,15.13,8.19,,
2017-02-26T11:39:04,9.25,33.56,27.13,16.38,15.13,8.19,,
2017-02-26T11:39:38,9.31,33.5,27.06,16.38,15.13,8.19,,
2017-02-26T11:40:11,9.25,33.5,27,16.38,15.13,8.25,,
2017-02-26T11:40:45,9.25,33.56,27,16.38,15.13,8.25,,
2017-02-26T11:41:19,9.25,33.56,27,16.38,15.13,8.25,,
2017-02-26T11:41:52,9.25,33.5,27.06,16.38,15.13,8.25
2017-02-26T11:42:26,9.25,33.56,27,16.38,15.13,8.25
2017-02-26T11:42:59,9.25,33.5,27.13,16.38,15.13,8.25
2017-02-26T11:43:33,9.25,33.56,27.25,16.38,15.13,8.25
2017-02-26T11:44:07,9.25,33.56,27.31,16.38,15.13,8.25
2017-02-26T11:44:40,9.25,33.5,27.25,16.38,15.13,8.25
2017-02-26T11:45:14,9.19,33.44,27.25,16.38,15.13,8.31
2017-02-26T11:45:47,9.19,33.44,27.31,16.38,15.13,8.31
2017-02-26T11:46:21,9.19,33.5,27.31,16.38,15.13,8.31
2017-02-26T11:46:55,9.19,33.5,27.25,16.38,15.13,8.31
2017-02-26T11:47:28,9.19,33.56,27.25,16.38,15.13,8.31
2017-02-26T11:48:02,9.13,33.56,27.25,16.38,15.13,8.31
2017-02-26T11:48:35,9.13,33.56,27.31,16.38,15.13,8.31
2017-02-26T11:49:09,9.13,33.56,27.19,16.38,15.13,8.31
2017-02-26T11:49:43,9.13,33.56,27.25,16.38,15.13,8.31
2017-02-26T11:50:16,9.13,33.5,27.31,16.38,15.06,8.31
2017-02-26T11:50:50,9.13,33.5,27.38,16.38,15.06,8.31
2017-02-26T11:51:23,9.13,33.5,27.38,16.38,15.06,8.31
2017-02-26T11:51:57,9.13,33.44,27.31,16.38,15.06,8.31
2017-02-26T11:52:31,9.13,33.44,27.44,16.38,15.06,8.31
2017-02-26T11:53:04,9.13,33.38,27.44,16.38,15.06,8.31
2017-02-26T11:53:38,9.13,33.31,27.25,16.38,15.06,8.31
2017-02-26T11:54:11,9.06,33.38,27.19,16.38,15.06,8.31
2017-02-26T11:54:45,9.06,33.38,27,16.38,15.06,8.31
2017-02-26T11:55:19,9.06,33.44,26.94,16.38,15.06,8.31
2017-02-26T11:55:52,9.06,33.44,26.94,16.38,15.06,8.31
2017-02-26T11:56:26,9.06,33.5,27,16.38,15.06,8.31
2017-02-26T11:56:59,9.13,33.56,27.19,16.38,15.13,8.31
2017-02-26T11:57:33,9.13,33.56,27.19,16.38,15.13,8.31
2017-02-26T11:58:07,9.19,33.63,27.25,16.44,15.13,8.31
2017-02-26T11:58:40,9.25,33.63,27.31,16.44,15.13,8.31
2017-02-26T11:59:14,9.31,33.63,27.38,16.38,15.19,8.31
2017-02-26T11:59:47,9.31,33.63,27.44,16.38,15.19,8.31
2017-02-26T12:00:21,9.38,33.56,27.44,16.44,15.19,8.31
2017-02-26T12:00:55,9.38,33.5,27.44,16.44,15.19,8.31
2017-02-26T12:01:28,9.38,33.5,27.44,16.5,15.19,8.31
2017-02-26T12:02:02,9.44,33.5,27.44,16.5,15.19,8.31
2017-02-26T12:02:35,9.44,33.56,27.31,16.44,15.25,8.31
2017-02-26T12:03:09,9.44,33.56,27.25,16.44,15.25,8.31
2017-02-26T12:03:43,9.44,33.63,27.31,16.44,15.25,8.31
2017-02-26T12:04:16,9.44,33.69,27.44,16.5,15.25,8.38
2017-02-26T12:04:50,9.44,33.69,27.38,16.5,15.25,8.31
2017-02-26T12:05:23,9.44,33.75,27.31,16.5,15.25,8.38
2017-02-26T12:05:57,9.44,33.75,27.31,16.5,15.25,8.38
2017-02-26T12:06:31,9.44,33.75,27.44,16.5,15.25,8.38
2017-02-26T12:07:04,9.44,33.75,27.5,16.44,15.31,8.38
2017-02-26T12:07:38,9.44,33.75,27.44,16.44,15.38,8.38
2017-02-26T12:08:11,9.38,33.75,27.38,16.5,15.31,8.38
2017-02-26T12:08:45,9.38,33.81,27.19,16.5,15.31,8.38
2017-02-26T12:09:19,9.38,33.81,27.25,16.5,15.25,8.38
2017-02-26T12:09:52,9.38,33.81,27.31,16.5,15.25,8.38
2017-02-26T12:10:26,9.38,33.81,27.31,16.5,15.25,8.38
2017-02-26T12:10:59,9.38,33.75,27.38,16.44,15.25,8.44
2017-02-26T12:11:33,9.38,33.69,27.38,16.44,15.25,8.44
2017-02-26T12:12:07,9.38,33.63,27.31,16.5,15.25,8.44
2017-02-26T12:12:40,9.38,33.63,27.25,16.44,15.25,8.44
2017-02-26T12:13:14,9.38,33.56,27.25,16.5,15.25,8.44
2017-02-26T12:13:47,9.38,33.5,27.31,16.5,15.25,8.44
2017-02-26T12:14:21,9.38,33.56,27.38,16.5,15.25,8.44
2017-02-26T12:14:54,9.38,33.56,27.38,16.5,15.25,8.44
2017-02-26T12:15:28,9.38,33.63,27.44,16.5,15.25,8.44
2017-02-26T12:16:02,9.38,33.69,27.38,16.5,15.25,8.44
2017-02-26T12:16:35,9.38,33.69,27.44,16.5,15.31,8.44
2017-02-26T12:17:09,9.38,33.75,27.5,16.5,15.31,8.44
2017-02-26T12:17:42,9.31,33.75,27.56,16.5,15.31,8.44
2017-02-26T12:18:16,9.31,33.69,27.63,16.56,15.31,8.44
2017-02-26T12:18:50,9.31,33.69,27.63,16.5,15.31,8.44
2017-02-26T12:19:23,9.31,33.63,27.63,16.5,15.31,8.44
2017-02-26T12:19:57,9.31,33.63,27.63,16.5,15.31,8.44
2017-02-26T12:20:30,9.31,33.5,27.63,16.5,15.31,8.44
2017-02-26T12:21:04,9.25,33.5,27.63,16.5,15.31,8.44
2017-02-26T12:21:38,9.25,33.5,27.69,16.5,15.31,8.44
2017-02-26T12:22:11,9.25,33.5,27.69,16.5,15.31,8.44
2017-02-26T12:22:45,9.25,33.5,27.75,16.5,15.31,8.44
2017-02-26T12:23:18,9.25,33.5,27.69,16.5,15.31,8.5
2017-02-26T12:23:52,9.25,33.5,27.56,16.5,15.31,8.5
2017-02-26T12:24:26,9.25,33.5,27.5,16.5,15.31,8.5
2017-02-26T12:24:59,9.25,33.5,27.44,16.5,15.31,8.5
2017-02-26T12:25:33,9.25,33.44,27.44,16.5,15.31,8.5
2017-02-26T12:26:06,9.19,33.38,27.5,16.5,15.31,8.5
2017-02-26T12:26:40,9.19,33.31,27.5,16.5,15.31,8.5
2017-02-26T12:27:14,9.19,33.38,27.63,16.5,15.31,8.5
2017-02-26T12:27:47,9.19,33.38,27.69,16.5,15.31,8.5
2017-02-26T12:28:21,9.19,33.38,27.69,16.44,15.25,8.5
2017-02-26T12:28:54,9.19,33.31,27.63,16.44,15.25,8.5
2017-02-26T12:29:28,9.19,33.25,27.63,16.44,15.25,8.5
2017-02-26T12:30:02,9.19,33.31,27.75,16.44,15.25,8.5
2017-02-26T12:30:35,9.19,33.25,27.75,16.44,15.25,8.5
2017-02-26T12:31:09,9.19,33.31,27.69,16.44,15.25,8.5
2017-02-26T12:31:42,9.19,33.31,27.69,16.44,15.25,8.5
2017-02-26T12:32:16,9.19,33.25,27.69,16.44,15.25,8.5
2017-02-26T12:32:50,9.19,33.25,27.69,16.44,15.19,8.5
2017-02-26T12:33:23,9.19,33.19,27.69,16.44,15.19,8.5
2017-02-26T12:33:57,9.19,33.19,27.69,16.44,15.19,8.5
2017-02-26T12:34:30,9.19,33.25,27.69,16.44,15.19,8.5
2017-02-26T12:35:04,9.19,33.31,27.56,16.38,15.19,8.5
2017-02-26T12:35:37,9.19,33.38,27.44,16.44,15.19,8.5
2017-02-26T12:36:11,9.19,33.38,27.44,16.44,15.19,8.5
2017-02-26T12:36:45,9.19,33.31,27.38,16.44,15.19,8.5
2017-02-26T12:37:18,9.19,33.38,27.31,16.44,15.19,8.5
2017-02-26T12:37:52,9.19,33.31,27.31,16.44,15.19,8.5
2017-02-26T12:38:25,9.19,33.38,27.38,16.44,15.19,8.5
2017-02-26T12:38:59,9.19,33.44,27.38,16.44,15.13,8.5
2017-02-26T12:39:33,9.19,33.5,27.38,16.44,15.13,8.5
2017-02-26T12:40:06,9.19,33.5,27.31,16.44,15.13,8.5
2017-02-26T12:40:40,9.19,33.56,27.31,16.44,15.13,8.5
2017-02-26T12:41:13,9.19,33.63,27.19,16.44,15.13,8.5
2017-02-26T12:41:47,9.19,33.63,27.13,16.44,15.13,8.5
2017-02-26T12:42:21,9.19,33.63,27.13,16.44,15.13,8.5
2017-02-26T12:42:54,9.19,33.63,27.31,16.38,15.13,8.5
2017-02-26T12:43:28,9.19,33.63,27.38,16.44,15.13,8.5
2017-02-26T12:44:01,9.19,33.69,27.38,16.44,15.13,8.5
2017-02-26T12:44:35,9.19,33.75,27.38,16.44,15.13,8.5
2017-02-26T12:45:09,9.19,33.75,27.31,16.44,15.13,8.5
2017-02-26T12:45:42,9.19,33.75,27.31,16.44,15.13,8.5
2017-02-26T12:46:16,9.19,33.69,27.31,16.38,15.13,8.5
2017-02-26T12:46:49,9.19,33.69,27.25,16.44,15.13,8.5
2017-02-26T12:47:23,9.19,33.63,27.25,16.38,15.13,8.5
2017-02-26T12:47:57,9.19,33.63,27.31,16.38,15.13,8.5
2017-02-26T12:48:30,9.19,33.56,27.25,16.38,15.13,8.5
2017-02-26T12:49:04,9.19,33.56,27.38,16.38,15.06,8.5
2017-02-26T12:49:37,9.19,33.56,27.31,16.38,15.06,8.5
2017-02-26T12:50:11,9.19,33.63,27.25,16.38,15.13,8.5
2017-02-26T12:50:45,9.19,33.63,27.25,16.44,15.06,8.5
2017-02-26T12:51:18,9.19,33.56,27.19,16.44,15.13,8.5
2017-02-26T12:51:52,9.19,33.56,27.13,16.44,15.06,8.5
2017-02-26T12:52:25,9.19,33.56,27.06,16.5,15.06,8.5
2017-02-26T12:52:59,9.19,33.56,27.06,16.56,15.06,8.56
2017-02-26T12:53:32,9.19,33.5,27.06,16.63,15.06,8.56
2017-02-26T12:54:06,9.19,33.56,26.94,16.69,15.06,8.5
2017-02-26T12:54:40,9.19,33.56,26.94,16.75,15.06,8.56
2017-02-26T12:55:13,9.19,33.56,26.94,16.75,15.13,8.5
2017-02-26T12:55:47,9.19,33.63,26.94,16.75,15.13,8.56
2017-02-26T12:56:20,9.19,33.69,26.94,16.81,15.06,8.56
2017-02-26T12:56:54,9.19,33.69,26.81,16.69,15.06,8.56
2017-02-26T12:57:28,9.19,33.69,26.81,16.63,15.06,8.56
2017-02-26T12:58:01,9.19,33.63,26.75,16.63,15.06,8.56
2017-02-26T12:58:35,9.19,33.63,26.75,16.56,15.06,8.56
2017-02-26T12:59:08,9.19,33.63,26.75,16.56,15.06,8.56
2017-02-26T12:59:42,9.19,33.56,26.81,16.56,15.06,8.56
2017-02-26T13:00:16,9.19,33.56,26.75,16.56,15.13,8.56
2017-02-26T13:00:49,9.19,33.63,26.69,16.5,15.06,8.56
2017-02-26T13:01:23,9.19,33.63,26.63,16.5,15.13,8.56
2017-02-26T13:01:56,9.19,33.56,26.56,16.5,15.06,8.56
2017-02-26T13:02:30,9.19,33.56,26.38,16.5,15.06,8.56
2017-02-26T13:03:04,9.19,33.5,26.38,16.5,15.06,8.56
2017-02-26T13:03:37,9.19,33.56,26.31,16.5,15.06,8.56
2017-02-26T13:04:11,9.19,33.56,26.25,16.5,15.06,8.56
2017-02-26T13:04:44,9.19,33.56,26.25,16.5,15.06,8.56
2017-02-26T13:05:18,9.19,33.56,26.44,16.5,15.06,8.56
2017-02-26T13:05:52,9.19,33.56,26.56,16.5,15.06,8.56
2017-02-26T13:06:25,9.19,33.56,26.63,16.5,15.06,8.56
2017-02-26T13:06:59,9.19,33.56,26.75,16.5,15.06,8.56
2017-02-26T13:07:32,9.19,33.56,26.75,16.5,15.13,8.56
2017-02-26T13:08:06,9.19,33.56,26.75,16.5,15.06,8.56
2017-02-26T13:08:39,9.19,33.56,26.88,16.5,15.13,8.56
2017-02-26T13:09:13,9.19,33.5,26.94,16.5,15.13,8.56
2017-02-26T13:09:47,9.19,33.56,27,16.5,15.13,8.56
2017-02-26T13:10:20,9.19,33.56,27.06,16.5,15.13,8.56
2017-02-26T13:10:54,9.19,33.56,27.13,16.44,15.13,8.56
2017-02-26T13:11:27,9.19,33.63,27.06,16.5,15.13,8.56
2017-02-26T13:12:01,9.19,33.56,27.06,16.5,15.13,8.56
2017-02-26T13:12:35,9.19,33.63,27.19,16.5,15.13,8.63
2017-02-26T13:13:08,9.19,33.69,27.19,16.5,15.13,8.63
2017-02-26T13:13:42,9.19,33.69,27.25,16.5,15.13,8.63
2017-02-26T13:14:15,9.19,33.75,27.38,16.44,15.13,8.63
2017-02-26T13:14:49,9.19,33.75,27.44,16.44,15.13,8.63
2017-02-26T13:15:23,9.19,33.69,27.5,16.44,15.13,8.56
2017-02-26T13:15:56,9.19,33.69,27.5,16.5,15.13,8.56
2017-02-26T13:16:30,9.19,33.69,27.5,16.5,15.13,8.63
2017-02-26T13:17:03,9.19,33.69,27.44,16.5,15.13,8.63
2017-02-26T13:17:37,9.19,33.69,27.38,16.5,15.13,8.63
2017-02-26T13:18:11,9.19,33.69,27.31,16.5,15.13,8.63
2017-02-26T13:18:44,9.19,33.63,27.31,16.5,15.13,8.63
2017-02-26T13:19:18,9.19,33.63,27.31,16.5,15.13,8.63
2017-02-26T13:19:51,9.19,33.63,27.5,16.5,15.13,8.56
2017-02-26T13:20:25,9.19,33.63,27.5,16.5,15.19,8.63
2017-02-26T13:20:59,9.19,33.63,27.63,16.5,15.19,8.63
2017-02-26T13:21:32,9.19,33.69,27.75,16.5,15.19,8.63
2017-02-26T13:22:06,9.19,33.63,27.81,16.5,15.19,8.63
2017-02-26T13:22:39,9.19,33.63,27.88,16.5,15.19,8.63
2017-02-26T13:23:13,9.19,33.63,28,16.5,15.19,8.63
2017-02-26T13:23:46,9.19,33.63,28.06,16.5,15.19,8.63
2017-02-26T13:24:20,9.19,33.63,28.06,16.5,15.19,8.63
2017-02-26T13:24:54,9.19,33.63,28,16.5,15.19,8.63
2017-02-26T13:25:27,9.13,33.69,27.94,16.5,15.19,8.63
2017-02-26T13:26:01,9.19,33.63,28,16.5,15.19,8.63
2017-02-26T13:26:34,9.13,33.63,27.94,16.5,15.19,8.63
2017-02-26T13:27:08,9.19,33.56,27.88,16.5,15.19,8.63
2017-02-26T13:27:42,9.19,33.56,27.81,16.5,15.19,8.63
2017-02-26T13:28:15,9.13,33.56,27.75,16.5,15.19,8.63
2017-02-26T13:28:49,9.19,33.63,27.56,16.5,15.19,8.63
2017-02-26T13:29:22,9.13,33.63,27.31,16.5,15.19,8.63
2017-02-26T13:29:56,9.19,33.63,27.19,16.5,15.13,8.63
2017-02-26T13:30:30,9.13,33.56,27.13,16.5,15.13,8.63
2017-02-26T13:31:03,9.19,33.63,26.94,16.5,15.13,8.63
2017-02-26T13:31:37,9.19,33.56,27,16.5,15.13,8.63
2017-02-26T13:32:10,9.19,33.56,27,16.5,15.13,8.63
2017-02-26T13:32:44,9.19,33.56,27,16.5,15.13,8.63
2017-02-26T13:33:18,9.19,33.56,26.88,16.5,15.13,8.63
2017-02-26T13:33:51,9.19,33.56,26.88,16.5,15.13,8.63
2017-02-26T13:34:25,9.19,33.56,26.94,16.5,15.13,8.63
2017-02-26T13:34:58,9.19,33.63,27.06,16.5,15.13,8.63
2017-02-26T13:35:32,9.19,33.63,27.06,16.5,15.13,8.63
2017-02-26T13:36:06,9.19,33.63,27.06,16.5,15.13,8.63
2017-02-26T13:36:39,9.19,33.63,27.19,16.5,15.13,8.63
2017-02-26T13:37:13,9.19,33.69,27.19,16.5,15.13,8.63
2017-02-26T13:37:46,9.19,33.69,27.25,16.5,15.13,8.63
2017-02-26T13:38:20,9.19,33.69,27.31,16.5,15.13,8.69
2017-02-26T13:38:54,9.19,33.69,27.44,16.5,15.13,8.69
2017-02-26T13:39:27,9.19,33.69,27.44,16.5,15.13,8.69
2017-02-26T13:40:01,9.19,33.63,27.56,16.5,15.13,8.69
2017-02-26T13:40:34,9.19,33.69,27.5,16.5,15.13,8.69
2017-02-26T13:41:08,9.19,33.75,27.5,16.5,15.13,8.69
2017-02-26T13:41:41,9.19,33.69,27.5,16.5,15.13,8.69
2017-02-26T13:42:15,9.19,33.69,27.5,16.5,15.13,8.69
2017-02-26T13:42:49,9.19,33.63,27.44,16.5,15.13,8.69
2017-02-26T13:43:22,9.19,33.56,27.44,16.5,15.13,8.69
2017-02-26T13:43:56,9.19,33.44,27.31,16.5,15.19,8.69
2017-02-26T13:44:29,9.19,33.44,27.31,16.5,15.19,8.69
2017-02-26T13:45:03,9.19,33.44,27.25,16.5,15.19,8.69
2017-02-26T13:45:37,9.19,33.44,27.25,16.5,15.19,8.69
2017-02-26T13:46:10,9.19,33.5,27.25,16.5,15.19,8.69
2017-02-26T13:46:44,9.19,33.5,27.31,16.5,15.19,8.69
2017-02-26T13:47:17,9.19,33.5,27.25,16.5,15.19,8.69
2017-02-26T13:47:51,9.19,33.44,27.25,16.56,15.19,8.69
2017-02-26T13:48:25,9.19,33.44,27.25,16.5,15.19,8.69
2017-02-26T13:48:58,9.19,33.5,27.25,16.56,15.19,8.69
2017-02-26T13:49:32,9.19,33.38,27.25,16.56,15.19,8.69
2017-02-26T13:50:05,9.19,33.44,27.31,16.56,15.19,8.69
2017-02-26T13:50:39,9.19,33.44,27.31,16.56,15.25,8.69
2017-02-26T13:51:13,9.19,33.5,27.38,16.56,15.25,8.69
2017-02-26T13:51:46,9.19,33.56,27.38,16.56,15.25,8.69
2017-02-26T13:52:20,9.19,33.56,27.31,16.56,15.25,8.69
2017-02-26T13:52:53,9.19,33.56,27.31,16.56,15.25,8.69
2017-02-26T13:53:27,9.19,33.5,27.25,16.56,15.25,8.69
2017-02-26T13:54:01,9.19,33.5,27.25,16.56,15.25,8.63
2017-02-26T13:54:34,9.19,33.5,27.13,16.56,15.25,8.63
2017-02-26T13:55:08,9.19,33.5,27.19,16.56,15.25,8.63
2017-02-26T13:55:41,9.19,33.5,27.19,16.56,15.31,8.63
2017-02-26T13:56:15,9.19,33.5,27.06,16.56,15.31,8.63
2017-02-26T13:56:48,9.19,33.5,27,16.56,15.31,8.63
2017-02-26T13:57:22,9.19,33.44,27,16.56,15.31,8.63
2017-02-26T13:57:56,9.19,33.38,26.94,16.5,15.31,8.63
2017-02-26T13:58:29,9.19,33.38,26.88,16.56,15.31,8.63
2017-02-26T13:59:03,9.19,33.44,26.88,16.56,15.31,8.63
2017-02-26T13:59:36,9.19,33.5,26.88,16.56,15.25,8.56
2017-02-26T14:00:10,9.19,33.5,26.94,16.56,15.25,8.56
2017-02-26T14:00:44,9.19,33.56,27,16.56,15.25,8.63
2017-02-26T14:01:17,9.19,33.56,27.06,16.56,15.25,8.56
2017-02-26T14:01:51,9.19,33.56,27,16.56,15.25,8.56
2017-02-26T14:02:24,9.19,33.5,26.94,16.56,15.25,8.56
2017-02-26T14:02:58,9.19,33.5,27,16.56,15.25,8.56
2017-02-26T14:03:32,9.19,33.5,27,16.56,15.25,8.56
2017-02-26T14:04:05,9.19,33.44,27,16.56,15.25,8.56
2017-02-26T14:04:39,9.19,33.44,27,16.56,15.25,8.56
2017-02-26T14:05:12,9.19,33.44,27.06,16.56,15.25,8.56
2017-02-26T14:05:46,9.19,33.44,27.19,16.56,15.25,8.56
2017-02-26T14:06:20,9.19,33.44,27.31,16.56,15.19,8.56
2017-02-26T14:06:53,9.19,33.5,27.38,16.56,15.19,8.56
2017-02-26T14:07:27,9.19,33.5,27.44,16.56,15.19,8.56
2017-02-26T14:08:00,9.19,33.5,27.5,16.56,15.19,8.56
2017-02-26T14:08:34,9.19,33.56,27.63,16.56,15.19,8.56
2017-02-26T14:09:08,9.19,33.63,27.69,16.56,15.19,8.5
2017-02-26T14:09:41,9.19,33.63,27.69,16.56,15.19,8.5
2017-02-26T14:10:15,9.19,33.63,27.63,16.56,15.19,8.5
2017-02-26T14:10:48,9.19,33.63,27.63,16.56,15.19,8.5
2017-02-26T14:11:22,9.19,33.56,27.75,16.56,15.19,8.5
2017-02-26T14:11:55,9.19,33.56,27.69,16.56,15.19,8.5
2017-02-26T14:12:29,9.19,33.5,27.56,16.56,15.19,8.5
2017-02-26T14:13:03,9.19,33.5,27.38,16.56,15.19,8.5
2017-02-26T14:13:36,9.19,33.56,27.25,16.56,15.19,8.5
2017-02-26T14:14:10,9.19,33.56,27.13,16.56,15.19,8.5
2017-02-26T14:14:43,9.19,33.44,27.13,16.56,15.19,8.5
2017-02-26T14:15:17,9.19,33.44,27.13,16.56,15.19,8.5
2017-02-26T14:15:51,9.19,33.44,27.25,16.56,15.19,8.5
2017-02-26T14:16:24,9.19,33.38,27.31,16.56,15.25,8.5
2017-02-26T14:16:58,9.19,33.31,27.38,16.56,15.19,8.5
2017-02-26T14:17:31,9.19,33.38,27.38,16.56,15.19,8.5
2017-02-26T14:18:05,9.19,33.38,27.31,16.56,15.19,8.5
2017-02-26T14:18:39,9.19,33.38,27.25,16.56,15.19,8.5
2017-02-26T14:19:12,9.19,33.38,27.19,16.56,15.19,8.5
2017-02-26T14:19:46,9.19,33.31,27.13,16.56,15.19,8.5
2017-02-26T14:20:19,9.19,33.19,27.13,16.56,15.19,8.56
2017-02-26T14:20:53,9.19,33.19,27.06,16.56,15.19,8.5
2017-02-26T14:21:27,9.19,33.19,27,16.56,15.19,8.5
2017-02-26T14:22:00,9.19,33.25,26.94,16.56,15.19,8.5
2017-02-26T14:22:34,9.19,33.25,26.94,16.56,15.19,8.5
2017-02-26T14:23:07,9.19,33.25,26.94,16.56,15.19,8.5
2017-02-26T14:23:41,9.19,33.31,26.94,16.56,15.19,8.5
2017-02-26T14:24:15,9.19,33.38,26.94,16.56,15.19,8.5
2017-02-26T14:24:48,9.19,33.44,26.94,16.56,15.19,8.5
2017-02-26T14:25:22,9.19,33.5,26.94,16.63,15.19,8.5
2017-02-26T14:25:55,9.19,33.5,26.94,16.63,15.19,8.56
2017-02-26T14:26:29,9.19,33.5,27,16.63,15.19,8.56
2017-02-26T14:27:02,9.19,33.5,27.06,16.63,15.19,8.56
2017-02-26T14:27:36,9.19,33.56,27.06,16.63,15.19,8.56
2017-02-26T14:28:10,9.19,33.5,27.13,16.63,15.19,8.56
2017-02-26T14:28:43,9.19,33.5,27.25,16.63,15.19,8.56
2017-02-26T14:29:17,9.19,33.5,27.38,16.63,15.19,8.56
2017-02-26T14:29:50,9.19,33.5,27.44,16.63,15.19,8.56
2017-02-26T14:30:24,9.19,33.5,27.5,16.63,15.19,8.56
2017-02-26T14:30:58,9.19,33.5,27.38,16.63,15.19,8.56
2017-02-26T14:31:31,9.19,33.44,27.31,16.69,15.19,8.56
2017-02-26T14:32:05,9.19,33.38,27.31,16.69,15.19,8.56
2017-02-26T14:32:38,9.19,33.44,27.31,16.69,15.25,8.56
2017-02-26T14:33:12,9.19,33.44,27.38,16.69,15.25,8.56
2017-02-26T14:33:46,9.19,33.44,27.44,16.69,15.25,8.63
2017-02-26T14:34:19,9.19,33.5,27.56,16.69,15.25,8.56
2017-02-26T14:34:53,9.19,33.5,27.63,16.69,15.25,8.56
2017-02-26T14:35:26,9.19,33.5,27.69,16.69,15.25,8.56
2017-02-26T14:36:00,9.19,33.5,27.56,16.69,15.25,8.56
2017-02-26T14:36:34,9.19,33.5,27.5,16.63,15.25,8.56
2017-02-26T14:37:07,9.19,33.5,27.5,16.63,15.25,8.56
2017-02-26T14:37:41,9.19,33.56,27.31,16.63,15.25,8.56
2017-02-26T14:38:14,9.19,33.5,27.38,16.69,15.25,8.56
2017-02-26T14:38:48,9.19,33.5,27.25,16.63,15.25,8.56
2017-02-26T14:39:21,9.19,33.44,27.19,16.69,15.25,8.56
2017-02-26T14:39:55,9.19,33.38,27.19,16.69,15.25,8.56
2017-02-26T14:40:29,9.19,33.44,27.13,16.69,15.25,8.56
2017-02-26T14:41:02,9.19,33.44,27.13,16.69,15.25,8.56
2017-02-26T14:41:36,9.19,33.44,27.06,16.63,15.25,8.56
2017-02-26T14:42:09,9.19,33.5,27.06,16.63,15.25,8.63
2017-02-26T14:42:43,9.19,33.5,27,16.69,15.25,8.56
2017-02-26T14:43:17,9.19,33.44,27,16.63,15.25,8.56
2017-02-26T14:43:50,9.19,33.44,26.94,16.69,15.25,8.56
2017-02-26T14:44:24,9.19,33.38,26.88,16.63,15.19,8.63
2017-02-26T14:44:57,9.19,33.44,26.81,16.63,15.19,8.63
2017-02-26T14:45:31,9.25,33.44,26.75,16.63,15.19,8.63
2017-02-26T14:46:05,9.19,33.44,26.69,16.63,15.19,8.63
2017-02-26T14:46:38,9.19,33.44,26.69,16.69,15.19,8.63
2017-02-26T14:47:12,9.19,33.44,26.69,16.69,15.25,8.56
2017-02-26T14:47:45,9.19,33.5,26.69,16.69,15.19,8.56
2017-02-26T14:48:19,9.19,33.5,26.75,16.69,15.25,8.63
2017-02-26T14:48:53,9.19,33.5,26.75,16.69,15.25,8.63
2017-02-26T14:49:26,9.19,33.5,26.81,16.69,15.19,8.63
2017-02-26T14:50:00,9.19,33.56,26.88,16.75,15.19,8.63
2017-02-26T14:50:33,9.25,33.56,26.88,16.75,15.19,8.63
2017-02-26T14:51:07,9.25,33.56,26.88,16.75,15.19,8.63
2017-02-26T14:51:41,9.25,33.56,26.94,16.75,15.25,8.63
2017-02-26T14:52:14,9.19,33.5,26.94,16.75,15.25,8.63
2017-02-26T14:52:48,9.25,33.5,26.94,16.75,15.25,8.63
2017-02-26T14:53:21,9.25,33.5,27,16.75,15.25,8.63
2017-02-26T14:53:55,9.25,33.5,26.94,16.75,15.25,8.63
2017-02-26T14:54:28,9.25,33.5,26.88,16.75,15.25,8.63
2017-02-26T14:55:02,9.25,33.44,26.88,16.81,15.25,8.63
2017-02-26T14:55:36,9.25,33.44,26.81,16.75,15.25,8.63
2017-02-26T14:56:09,9.25,33.5,26.81,16.75,15.25,8.63
2017-02-26T14:56:43,9.25,33.5,26.88,16.75,15.25,8.63
2017-02-26T14:57:16,9.25,33.56,26.88,16.75,15.25,8.63
2017-02-26T14:57:50,9.25,33.56,26.81,16.75,15.25,8.63
2017-02-26T14:58:24,9.25,33.5,26.81,16.75,15.25,8.63
2017-02-26T14:58:57,9.25,33.56,26.75,16.75,15.25,8.63
2017-02-26T14:59:31,9.25,33.56,26.81,16.75,15.25,8.63
2017-02-26T15:00:04,9.25,33.56,26.88,16.75,15.25,8.63
2017-02-26T15:00:38,9.25,33.56,26.88,16.75,15.25,8.63
2017-02-26T15:01:12,9.25,33.63,26.88,16.75,15.25,8.63
2017-02-26T15:01:45,9.25,33.69,26.94,16.69,15.25,8.63
2017-02-26T15:02:19,9.25,33.69,26.81,16.75,15.25,8.56
2017-02-26T15:02:52,9.25,33.69,26.75,16.69,15.25,8.63
2017-02-26T15:03:26,9.25,33.69,26.69,16.69,15.25,8.63
2017-02-26T15:04:00,9.25,33.63,26.63,16.69,15.25,8.56
2017-02-26T15:04:33,9.25,33.56,26.63,16.69,15.25,8.56
2017-02-26T15:05:07,9.25,33.56,26.5,16.69,15.25,8.56
2017-02-26T15:05:40,9.25,33.5,26.56,16.69,15.19,8.56
2017-02-26T15:06:14,9.25,33.5,26.63,16.69,15.25,8.56
2017-02-26T15:06:47,9.25,33.5,26.63,16.69,15.19,8.56
2017-02-26T15:07:21,9.25,33.5,26.75,16.69,15.19,8.56
2017-02-26T15:07:55,9.25,33.5,26.88,16.69,15.19,8.56
2017-02-26T15:08:28,9.25,33.44,26.94,16.69,15.19,8.56
2017-02-26T15:09:02,9.25,33.38,26.94,16.69,15.25,8.56
2017-02-26T15:09:35,9.25,33.38,26.88,16.69,15.19,8.63
2017-02-26T15:10:09,9.25,33.38,26.75,16.69,15.19,8.63
2017-02-26T15:10:43,9.25,33.38,26.69,16.69,15.19,8.63
2017-02-26T15:11:16,9.25,33.38,26.69,16.69,15.19,8.63
2017-02-26T15:11:50,9.25,33.38,26.69,16.69,15.19,8.63
2017-02-26T15:12:23,9.25,33.38,26.81,16.69,15.19,8.63
2017-02-26T15:12:57,9.25,33.44,26.94,16.69,15.19,8.63
2017-02-26T15:13:31,9.25,33.44,27.06,16.69,15.19,8.63
2017-02-26T15:14:04,9.25,33.44,27.19,16.69,15.19,8.63
2017-02-26T15:14:38,9.31,33.5,27.25,16.69,15.19,8.63
2017-02-26T15:15:11,9.31,33.44,27.19,16.69,15.19,8.69
2017-02-26T15:15:45,9.31,33.44,27.19,16.69,15.19,8.69
2017-02-26T15:16:19,9.31,33.5,27.13,16.69,15.19,8.69
2017-02-26T15:16:52,9.31,33.44,27.25,16.69,15.19,8.69
2017-02-26T15:17:26,9.31,33.5,27.25,16.69,15.19,8.69
2017-02-26T15:17:59,9.31,33.63,27.25,16.69,15.19,8.69
2017-02-26T15:18:33,9.31,33.56,27.19,16.69,15.19,8.69
2017-02-26T15:19:07,9.31,33.56,27.19,16.69,15.19,8.69
2017-02-26T15:19:40,9.31,33.56,27,16.69,15.19,8.69
2017-02-26T15:20:14,9.31,33.56,26.94,16.69,15.19,8.69
2017-02-26T15:20:47,9.31,33.56,26.94,16.69,15.19,8.75
2017-02-26T15:21:21,9.31,33.56,26.81,16.69,15.19,8.75
2017-02-26T15:21:54,9.38,33.56,26.81,16.69,15.19,8.69
2017-02-26T15:22:28,9.38,33.56,26.81,16.69,15.19,8.75
2017-02-26T15:23:02,9.38,33.5,26.88,16.69,15.19,8.75
2017-02-26T15:23:35,9.38,33.56,26.88,16.69,15.19,8.75
2017-02-26T15:24:09,9.38,33.63,26.88,16.69,15.19,8.75
2017-02-26T15:24:42,9.38,33.56,26.94,16.69,15.19,8.75
2017-02-26T15:25:16,9.38,33.63,27,16.69,15.19,8.75
2017-02-26T15:25:50,9.38,33.63,26.94,16.69,15.19,8.75
2017-02-26T15:26:23,9.38,33.56,26.94,16.69,15.25,8.75
2017-02-26T15:26:57,9.38,33.56,26.94,16.69,15.19,8.81
2017-02-26T15:27:30,9.38,33.56,26.94,16.69,15.19,8.81
2017-02-26T15:28:04,9.44,33.56,26.88,16.69,15.19,8.81
2017-02-26T15:28:38,9.44,33.56,26.94,16.75,15.19,8.81
2017-02-26T15:29:11,9.44,33.63,27,16.75,15.19,8.81
2017-02-26T15:29:45,9.44,33.69,27.06,16.69,15.19,8.81
2017-02-26T15:30:18,9.44,33.69,27.13,16.69,15.25,8.81
2017-02-26T15:30:52,9.44,33.63,27.13,16.69,15.25,8.81
2017-02-26T15:31:26,9.44,33.63,27.06,16.69,15.19,8.81
2017-02-26T15:31:59,9.44,33.56,27.06,16.69,15.25,8.81
2017-02-26T15:32:33,9.44,33.5,27.06,16.69,15.19,8.81
2017-02-26T15:33:06,9.44,33.5,27.06,16.69,15.25,8.81
2017-02-26T15:33:40,9.44,33.5,27.13,16.75,15.19,8.81
2017-02-26T15:34:13,9.44,33.5,27.19,16.75,15.19,8.81
2017-02-26T15:34:47,9.44,33.5,27.19,16.69,15.19,8.81
2017-02-26T15:35:21,9.5,33.56,27.19,16.75,15.19,8.81
2017-02-26T15:35:54,9.5,33.63,27.19,16.75,15.19,8.81
2017-02-26T15:36:28,9.5,33.56,27.19,16.75,15.25,8.81
2017-02-26T15:37:01,9.5,33.63,27.13,16.69,15.25,8.81
2017-02-26T15:37:35,9.5,33.63,27.06,16.75,15.25,8.81
2017-02-26T15:38:09,9.5,33.63,27.13,16.75,15.25,8.81
2017-02-26T15:38:42,9.5,33.69,27.06,16.75,15.25,8.81
2017-02-26T15:39:16,9.5,33.69,27,16.69,15.25,8.81
2017-02-26T15:39:49,9.5,33.75,27,16.69,15.25,8.81
2017-02-26T15:40:23,9.5,33.75,27.06,16.69,15.25,8.81